Theta_e
312 312 312 313 313 313 313 314 314 314 315 316 316 316 317 318 318 319 322 325 328 329 329 324 325 335 342 344 345 344 339 341 341 340 340 338 338 343 344 349 349 348 346 347 351
312 312 312 313 313 313 313 314 314 315 315 315 316 316 317 318 319 320 322 323 324 328 328 325 324 325 328 335 336 335 333 337 337 338 339 337 338 339 343 350 350 349 348 351 352
312 312 312 312 313 313 314 314 314 315 315 315 316 316 317 317 323 329 322 322 325 327 327 326 324 322 323 324 326 332 331 332 334 338 339 338 338 339 338 344 349 348 349 352 352
312 312 312 312 313 313 314 314 314 315 315 315 316 316 317 317 329 332 329 327 326 329 328 327 322 323 324 325 328 328 328 329 334 336 340 337 339 338 335 337 347 346 349 352 352
311 312 312 312 313 313 314 314 315 315 315 315 316 316 316 317 324 328 330 326 323 326 326 323 321 324 326 326 326 328 328 329 329 330 338 338 338 339 340 342 348 348 349 351 351
311 311 312 312 313 313 314 314 315 315 315 315 315 316 316 316 327 331 329 327 322 320 320 320 322 327 326 326 325 327 327 327 333 339 339 339 339 340 340 347 349 349 349 349 350
311 311 312 312 313 313 314 315 315 315 315 315 315 315 316 319 320 327 329 326 326 325 324 324 325 325 326 325 326 326 330 330 333 337 340 340 339 339 343 350 350 350 349 349 349
310 311 311 312 312 313 314 314 315 315 316 315 315 315 316 319 320 323 325 323 325 326 326 326 326 324 326 326 323 328 329 330 330 332 338 336 333 335 347 351 351 352 350 350 349
310 311 311 312 312 313 314 314 315 316 316 316 315 316 318 321 322 323 323 323 323 324 325 325 325 324 324 320 318 320 326 331 332 332 333 332 332 331 341 350 351 352 352 351 350
309 310 311 312 312 313 314 314 316 319 323 319 318 317 318 321 323 324 324 324 323 323 324 325 324 319 316 316 319 323 328 330 330 332 332 331 332 330 337 345 350 351 351 351 350
308 309 311 311 312 313 314 321 321 322 320 321 321 319 321 321 321 324 323 324 324 321 321 322 320 321 320 318 320 322 323 323 325 327 331 330 329 330 334 337 343 349 351 351 346
307 308 310 311 312 312 313 317 316 315 316 319 320 320 323 323 321 324 324 323 323 322 321 319 318 319 321 321 321 320 321 321 322 328 333 330 334 338 333 334 339 348 351 350 348
305 307 309 310 312 312 313 317 316 317 316 318 319 319 320 320 321 324 324 323 321 321 321 319 320 322 322 322 322 320 321 322 324 330 330 331 329 337 339 342 337 348 349 350 349
305 306 307 310 311 312 316 317 316 318 312 316 318 320 320 319 321 323 324 323 320 319 319 320 321 322 322 321 320 319 321 326 332 330 326 326 326 332 337 338 351 350 350 349 348
304 305 306 307 309 311 316 317 318 318 313 317 320 321 320 320 322 322 323 323 319 321 320 320 322 322 322 322 321 321 322 328 327 324 322 324 323 329 335 343 345 355 352 351 349
304 304 305 306 308 310 316 317 318 315 315 318 321 319 318 319 320 322 321 323 322 320 320 320 322 323 321 323 322 322 320 318 318 318 321 323 327 327 339 335 343 354 352 352 351
304 304 305 306 308 313 316 317 313 315 316 318 319 318 317 317 318 320 319 318 317 318 318 320 321 322 324 324 321 318 315 316 319 320 321 323 330 332 339 352 348 337 332 331 331
305 305 306 307 307 310 314 312 315 315 316 317 318 318 320 319 318 319 318 317 317 318 317 320 320 322 324 323 323 321 316 316 320 321 322 323 328 348 347 348 335 333 333 337 332
305 306 307 308 307 308 314 311 312 315 319 318 318 319 318 318 317 318 316 316 317 317 318 318 319 321 323 323 322 322 320 316 316 317 320 322 344 351 344 339 335 335 335 335 345
305 307 308 308 309 309 310 311 313 314 316 316 318 319 318 318 320 320 317 319 319 317 318 318 320 320 322 324 322 321 318 320 316 323 323 322 337 352 351 340 340 340 337 338 352
306 315 314 312 309 314 310 310 313 316 316 317 318 318 318 319 319 319 321 323 322 321 317 316 317 322 323 322 322 320 319 318 316 318 321 324 328 327 350 345 343 340 336 338 338
307 314 315 313 311 308 309 311 315 315 317 316 317 316 316 317 319 319 322 323 324 322 319 316 315 318 319 320 322 320 320 318 319 320 322 324 327 332 338 338 338 337 334 332 340
306 312 315 312 310 309 309 312 314 313 313 315 318 318 318 317 318 319 321 322 324 326 326 319 316 318 318 318 320 327 324 319 316 316 325 327 327 333 334 337 337 338 338 338 345
308 318 318 315 312 310 312 312 313 316 315 316 316 317 316 317 316 318 319 321 321 325 326 321 316 317 318 319 322 327 327 324 321 323 323 323 330 337 336 336 335 335 335 336 337
309 313 317 314 313 312 311 313 313 313 317 316 316 316 317 317 317 317 320 319 320 323 325 320 318 323 322 323 324 326 326 325 326 323 327 325 334 334 335 335 335 334 333 331 333
310 316 315 316 316 314 312 312 314 315 316 319 317 317 316 316 317 322 323 320 321 320 320 322 327 323 323 325 327 327 326 327 328 327 328 334 336 330 334 336 333 334 332 331 332
315 314 314 315 315 314 313 316 317 317 319 320 320 318 321 323 323 323 324 323 321 322 321 325 323 327 328 325 326 321 325 327 329 330 329 334 331 332 334 335 333 333 332 335 345
Wind_Speed
9 9 9 10 10 11 11 11 11 12 12 13 14 13 13 13 13 16 17 11 6 5 4 3 2 5 8 11 13 5 3 2 4 3 6 9 3 11 8 13 7 12 15 20 31
10 11 11 11 11 12 11 11 11 12 13 13 14 14 14 15 14 15 17 12 10 7 6 7 5 4 7 6 6 6 3 9 8 8 6 2 12 9 6 11 3 13 14 31 30
12 12 12 12 13 12 12 12 12 12 13 14 15 14 14 15 12 4 2 13 11 9 8 9 10 8 6 5 5 5 5 7 14 29 32 6 12 12 16 4 16 31 35 34 33
13 13 13 14 14 14 13 13 13 12 13 14 16 15 13 11 1 4 3 4 10 11 11 11 8 3 3 4 3 4 14 7 8 15 11 9 17 3 11 6 23 25 35 38 38
14 14 14 15 15 15 15 14 13 13 13 13 15 15 12 8 6 3 3 5 8 11 13 12 11 4 2 5 13 1 6 20 26 21 21 18 7 5 4 6 23 30 38 38 35
15 16 16 16 16 16 15 14 14 14 14 13 15 15 11 6 5 5 4 6 8 8 9 11 5 5 9 5 2 11 18 21 9 4 6 9 5 3 6 16 28 33 37 37 35
16 17 18 18 18 18 17 16 15 15 14 14 14 15 16 16 6 8 9 7 6 7 8 8 10 9 6 4 7 13 7 8 5 8 6 5 3 6 15 26 33 31 32 34 36
17 18 18 19 19 20 19 17 16 16 15 15 13 14 11 9 11 14 13 10 12 12 14 13 16 14 6 6 8 6 4 6 3 3 6 12 7 8 23 32 29 25 33 31 34
17 18 18 19 20 21 19 18 16 17 15 14 11 9 12 6 10 10 15 15 10 13 15 19 9 6 3 3 5 6 4 4 10 3 4 5 5 2 28 33 28 28 30 32 31
18 18 18 18 19 20 18 17 14 12 7 8 11 7 10 3 4 8 12 16 12 16 14 3 3 3 4 5 4 4 4 4 6 5 5 6 6 7 29 31 31 30 27 33 29
17 18 18 17 17 17 15 8 5 2 11 9 11 11 16 13 12 10 5 12 17 12 4 4 4 4 11 8 4 3 6 7 16 10 6 5 6 7 18 23 23 28 26 33 29
17 17 17 16 16 13 9 4 7 11 13 13 19 25 27 26 16 14 7 7 4 4 2 5 5 9 5 5 5 6 8 13 11 13 0 3 2 2 2 12 26 28 28 33 30
17 17 17 14 14 10 6 1 9 6 5 13 16 18 28 18 20 23 12 10 5 3 3 6 9 4 4 7 5 5 6 12 12 4 4 3 5 4 2 5 14 19 28 27 33
16 17 16 13 8 8 5 3 5 2 4 8 6 11 16 17 8 24 23 17 2 9 6 6 7 7 5 7 6 6 11 9 5 4 3 3 5 4 5 6 2 19 21 23 23
16 16 15 12 10 6 6 4 1 1 3 5 5 2 9 16 21 8 27 22 9 6 6 10 4 3 5 8 5 10 4 7 2 3 2 3 4 6 4 6 3 7 7 4 15
16 16 16 14 14 8 7 2 3 5 7 7 3 2 5 6 8 3 6 16 11 5 3 9 4 4 7 6 5 3 5 6 4 3 2 3 4 5 3 6 9 26 32 28 3
17 16 18 16 7 6 5 4 4 4 5 6 3 3 2 3 2 5 5 5 6 3 5 5 6 4 4 5 3 7 7 4 4 5 5 3 1 5 8 4 21 27 40 27 5
18 18 18 18 12 10 5 4 4 5 7 6 5 6 2 2 4 4 4 4 4 4 3 5 8 4 4 5 4 1 7 6 4 3 5 2 3 4 3 16 30 33 17 17 30
19 17 18 11 14 13 8 3 8 7 3 6 8 5 7 6 4 2 6 6 8 10 9 6 7 5 6 4 6 2 3 6 7 3 3 2 4 3 2 6 15 22 24 19 22
19 17 13 10 14 18 4 5 4 5 5 5 2 3 6 6 6 5 5 3 5 9 3 7 3 6 5 2 1 5 6 3 3 3 3 4 3 5 10 12 10 11 17 21 15
16 9 1 9 19 12 4 6 5 22 3 2 2 3 5 4 2 3 4 2 2 5 10 6 4 9 3 4 5 2 1 6 6 4 6 2 6 6 15 10 10 14 25 31 20
6 2 9 16 5 2 4 6 6 9 5 6 4 8 7 6 2 2 1 1 14 4 4 5 6 7 11 5 3 3 4 6 5 5 1 4 5 3 7 7 12 18 30 27 16
11 4 12 18 3 2 4 4 7 5 8 5 4 4 2 6 3 3 3 3 13 7 1 4 1 2 10 7 4 1 2 5 5 3 5 5 5 1 2 8 20 24 26 23 17
5 2 5 12 6 5 0 5 5 9 12 10 7 3 2 1 4 1 4 2 10 10 9 5 3 5 7 7 2 5 3 4 5 3 4 5 3 6 9 12 24 31 29 22 21
3 2 1 2 7 4 5 3 4 4 5 10 4 7 6 4 1 3 2 5 5 11 7 4 3 2 4 3 3 2 4 6 4 5 5 5 9 10 18 21 29 33 29 21 20
2 4 5 5 9 3 5 4 8 10 6 3 3 3 4 5 6 3 2 0 3 5 5 5 1 4 1 1 3 3 4 2 5 4 3 5 7 7 11 15 16 27 26 22 20
3 4 4 4 5 2 3 4 6 5 3 1 1 5 6 5 6 5 7 4 5 1 1 3 3 3 4 4 1 3 2 2 2 2 7 5 9 3 5 13 24 29 28 25 18
Wind_Direction
343 340 339 337 338 339 343 346 347 341 339 337 333 330 325 312 297 286 267 255 233 251 253 290 245 235 238 239 228 225 58 272 266 238 256 151 158 164 209 156 162 191 178 172 167
335 332 330 330 331 333 335 339 338 335 332 330 328 332 329 320 309 278 253 246 231 232 248 290 292 223 242 239 209 166 142 219 215 222 241 189 184 164 129 160 93 150 163 161 170
326 326 324 324 324 325 328 328 331 330 325 325 327 332 330 327 323 358 231 231 221 241 253 273 281 268 241 248 192 181 210 214 239 240 241 188 219 179 143 194 178 152 158 168 171
318 318 318 318 319 319 320 322 325 324 319 323 323 328 332 330 256 11 38 200 223 239 256 273 283 248 242 293 317 267 255 258 242 243 223 209 219 115 173 230 188 173 170 170 175
311 312 312 311 312 312 314 315 315 314 314 317 317 323 336 315 276 264 303 300 258 248 252 263 268 258 297 304 324 229 298 309 312 305 222 214 165 134 151 191 176 171 165 180 182
307 308 307 306 307 305 307 307 308 307 307 308 309 315 319 293 218 247 264 317 274 255 256 246 252 307 284 266 300 309 301 300 302 72 155 181 88 108 189 171 170 175 177 187 187
305 305 303 304 302 302 302 302 302 299 299 297 301 304 296 267 233 232 241 276 286 283 285 288 287 286 306 302 330 313 333 331 286 168 187 162 6 185 180 168 177 178 191 191 189
303 304 304 303 302 299 298 301 299 295 292 289 293 296 272 281 239 227 231 244 263 283 294 296 296 283 247 292 351 346 44 358 179 192 206 152 249 174 170 170 189 185 195 198 190
301 301 302 303 302 299 299 302 298 293 289 284 283 275 267 252 239 250 244 252 276 282 290 296 281 242 308 61 7 12 267 308 314 221 158 212 229 230 183 184 190 193 199 202 190
301 300 300 301 302 301 305 305 299 293 302 278 257 274 255 222 314 293 259 251 266 281 298 221 186 71 36 65 238 265 313 286 254 296 281 238 287 117 182 186 194 194 194 208 194
300 300 299 301 300 305 315 337 331 274 313 265 280 263 275 270 294 280 316 240 252 266 254 356 69 222 242 210 188 285 285 280 283 272 285 357 355 340 180 189 194 195 190 208 208
302 298 297 298 298 300 316 32 36 323 298 268 264 263 260 270 282 252 262 216 182 228 135 9 244 239 224 227 196 215 263 274 287 282 300 36 280 356 141 211 198 191 194 211 216
303 301 298 297 293 285 268 315 344 335 256 287 253 248 254 247 238 246 242 238 178 206 212 188 244 336 221 273 242 227 205 262 234 350 313 336 310 347 82 345 209 199 211 212 216
304 302 301 296 282 261 230 269 336 326 42 273 236 248 222 215 259 241 242 224 161 213 178 234 268 234 290 255 178 248 212 235 232 62 259 51 277 324 334 325 107 183 197 200 204
304 300 298 292 270 270 226 262 318 217 326 250 235 266 200 181 218 220 230 212 194 211 124 243 269 301 278 246 157 235 183 205 263 162 103 326 67 272 6 297 236 56 78 117 187
302 300 292 287 271 255 251 222 161 50 246 306 265 221 132 226 197 170 158 202 216 202 227 240 248 191 225 273 215 324 103 58 61 117 53 255 132 285 349 322 60 70 59 27 197
300 296 287 273 270 206 231 182 56 163 318 290 351 349 159 307 290 166 147 140 169 142 275 311 267 250 218 285 7 65 53 351 347 1 214 196 21 69 294 86 110 108 100 80 222
303 294 277 266 242 233 196 61 183 221 257 304 321 329 311 177 233 207 145 220 208 112 125 178 303 195 173 180 238 146 144 154 211 224 267 248 5 312 354 110 123 121 127 185 211
312 300 279 263 223 199 177 126 202 215 280 350 336 48 342 347 230 162 186 224 202 171 175 164 267 260 235 195 137 254 207 188 107 17 53 223 105 44 294 148 160 169 181 177 189
319 308 282 231 199 177 97 221 241 213 7 0 339 29 357 322 12 24 180 297 274 201 175 215 288 207 280 190 210 165 159 85 14 145 225 290 190 202 215 197 208 187 193 184 187
318 316 101 150 160 163 163 227 259 277 272 334 308 313 252 267 269 314 283 137 284 287 166 137 122 262 120 197 208 12 249 51 118 124 163 195 258 215 207 210 212 220 207 206 206
320 317 157 156 113 128 162 195 237 272 296 250 231 215 218 219 242 295 287 263 347 274 142 220 157 240 220 278 286 199 184 147 134 244 9 153 264 258 192 246 251 218 209 210 221
329 293 175 181 138 241 267 257 240 244 256 236 236 217 262 203 209 208 328 314 7 40 54 178 329 281 323 352 2 229 159 102 106 80 187 135 260 118 195 230 223 228 227 232 238
319 350 151 226 248 142 186 271 250 259 240 203 230 201 208 105 355 261 341 324 333 6 40 112 117 153 202 220 186 150 132 120 123 109 174 218 235 237 215 223 237 235 235 236 222
281 282 14 257 255 236 178 279 297 317 249 196 220 206 174 151 9 126 358 326 332 4 19 79 74 238 218 260 310 255 150 159 162 171 154 235 199 228 212 210 219 233 234 240 216
295 335 335 301 293 277 179 233 240 254 229 296 197 67 149 141 172 188 156 195 266 335 31 357 7 358 7 37 293 267 298 112 119 139 115 154 251 228 246 228 236 235 231 234 219
308 294 294 293 323 36 208 260 261 323 301 152 308 104 98 176 188 236 202 221 199 224 63 70 103 55 278 331 310 352 278 18 90 129 139 167 230 199 202 206 220 224 230 224 216